Location: Ingoldesthorpe
(52.8667°N, 0.5167°E)
Time: 20:28:26
(UTC+00:00)

Cosmos 1455 - Pass Details

Date: 19 May 2025
Orbit: 324 x 332 km, 82.5° (Epoch: 21 June)

Event Time Altitude Azimuth Distance (km) Brightness Sun altitude
Rises 23:45:54 0° 358° (N) 2,172 7.2 -17.1°
Reaches altitude 10° 23:48:05 10° 12° (NNE) 1,314 5.5 -17.1°
Maximum altitude 23:50:31 25° 71° (ENE) 751 3.2 -17.1°
Enters shadow 23:51:15 22° 98° (E) 817 3.1 -17.1°
